Welcome to Hicks Airfield

Driving Safety »



  • Current KAFW METAR
    (5.8nm NE) VFR
    KAFW 251953Z 13010KT 7SM SCT030 32/24 A2971 RMK AO2 SLP048 T03220244 $
  • Flappings Newsletter
    The official newsletter of HAPA.
    Read »
  • Property Owner's Portal
    Create an account on our owner's portal for access to secure documents.
    Log-in »